Theta_e
286 285 285 285 284 284 284 284 284 283 284 285 285 284 284 283 283 283 283 283 283 283 282 282 281 280 280 279 279 279 279 278 278 278 278 278 277 277 277 276 275 275 275 276 276 276 276 277 277 276 276 275 275 276 276 277 277 277 278 278 279 280 280 281 281 280 280 281 282 282 283 284 284 285 285 285 285 285 286 286 286 287 288 288 288
286 285 285 285 284 284 284 284 284 283 283 284 284 284 284 284 284 283 283 283 282 282 281 281 280 280 279 279 278 278 278 278 278 278 277 277 277 277 276 275 274 274 275 275 275 275 276 276 276 274 273 274 274 274 275 276 276 276 276 277 278 278 278 279 279 278 278 279 279 280 282 283 283 284 284 284 285 285 286 285 286 287 287 288 288
286 285 285 285 284 284 284 283 284 284 284 283 284 284 284 284 283 283 283 282 282 282 281 281 280 279 279 278 278 278 278 277 277 277 277 277 277 276 275 274 273 273 274 274 274 274 274 275 275 273 272 273 273 273 274 275 275 275 275 275 275 276 276 276 276 276 276 277 278 280 282 282 282 283 283 284 284 285 285 284 285 286 286 286 287
286 285 285 285 285 284 284 283 283 283 284 284 284 284 284 283 283 283 283 282 282 282 281 280 280 279 278 278 277 277 277 277 276 277 277 276 276 275 274 274 273 273 273 273 273 273 273 274 273 272 272 272 272 272 273 273 273 273 274 274 274 274 274 274 275 275 275 276 278 279 281 281 282 283 281 281 283 283 283 284 285 285 285 285 285
287 286 285 285 285 285 284 284 283 282 283 284 284 284 284 283 283 283 282 282 281 281 280 280 279 278 277 277 277 276 276 276 276 276 276 276 275 274 274 273 273 272 273 273 273 273 273 272 272 272 271 271 271 271 272 272 272 272 273 273 272 273 273 273 273 274 274 275 275 277 279 281 281 280 278 280 282 282 283 283 283 283 283 284 284
287 286 285 285 285 285 285 284 283 282 283 284 284 284 283 283 282 282 281 280 280 280 279 278 278 277 277 276 276 275 275 275 275 275 275 275 274 274 274 273 272 272 272 272 272 272 272 272 272 271 271 270 270 271 271 271 271 271 271 271 271 272 272 272 272 273 273 273 274 275 276 277 277 277 277 279 280 280 281 282 282 282 282 282 282
287 286 285 286 286 285 285 284 283 283 284 284 284 283 282 282 281 281 280 279 279 278 278 278 278 277 276 275 275 275 275 274 274 275 275 275 274 274 273 273 272 272 272 272 272 272 271 271 271 271 270 270 270 270 271 271 270 270 270 271 271 271 271 271 271 272 272 273 273 273 274 274 274 275 276 276 276 278 279 280 280 281 281 281 281
288 287 286 286 286 286 285 284 284 284 284 284 283 282 281 280 280 279 278 278 278 277 277 277 277 276 276 275 274 274 274 273 273 274 274 274 274 273 273 272 271 271 271 271 271 271 271 271 271 270 269 269 270 270 270 270 269 269 270 270 270 270 270 271 271 271 271 272 272 272 272 273 273 273 274 275 275 276 276 277 278 279 279 280 280
287 287 286 286 286 286 286 285 284 285 284 283 282 281 280 279 279 278 278 277 277 277 277 276 276 276 275 274 274 273 273 273 273 273 273 273 273 272 272 272 271 271 271 271 271 271 271 270 270 270 269 269 270 270 269 269 269 269 269 269 269 269 270 270 270 270 271 271 271 271 271 272 273 273 274 274 275 275 275 276 277 277 277 278 279
287 286 286 286 287 287 286 285 284 284 284 283 282 281 279 279 278 278 277 277 276 276 276 275 275 275 274 274 273 273 272 272 272 272 272 273 272 272 272 271 270 270 270 270 270 270 270 270 269 269 268 268 269 269 268 268 268 268 268 268 268 269 269 269 270 270 270 270 270 270 271 272 272 273 273 274 274 274 274 275 275 275 275 276 276
288 286 286 287 287 287 286 285 284 284 284 282 281 280 279 279 278 278 277 277 276 276 275 275 274 274 274 273 273 272 271 271 271 271 272 272 272 272 271 270 270 270 270 270 270 269 269 269 269 268 268 268 268 268 268 268 267 267 268 268 268 268 268 268 269 269 269 269 269 270 270 271 271 272 272 273 273 273 273 273 273 274 274 274 275
290 288 287 286 286 286 285 284 284 283 283 282 281 280 279 279 278 277 277 276 276 276 275 275 274 274 273 273 272 272 271 271 271 271 271 271 271 271 271 270 270 269 269 269 269 269 269 268 268 268 267 267 267 267 267 267 267 267 267 267 267 267 268 268 268 268 268 268 269 269 269 270 270 271 271 272 272 272 272 272 272 273 273 273 274
290 289 288 286 285 285 284 284 283 283 282 282 281 280 279 279 278 278 277 276 276 275 275 275 274 274 273 273 272 271 271 270 270 270 270 271 271 271 270 270 269 269 269 269 268 268 268 268 268 267 267 267 267 267 266 266 267 267 267 267 267 267 267 267 267 267 267 268 268 268 268 269 269 269 270 270 271 271 271 271 272 272 272 272 273
290 290 288 286 286 285 284 284 283 283 283 282 281 281 280 279 278 278 277 276 276 275 275 274 274 273 273 272 272 271 271 270 270 270 270 270 270 270 270 270 269 268 268 268 268 268 268 267 267 267 266 266 266 266 266 266 266 266 266 266 266 266 266 266 267 267 267 267 267 267 268 268 268 268 269 269 270 270 271 271 271 271 271 271 272
290 290 288 287 286 286 285 284 284 283 283 282 281 281 280 279 278 278 277 276 276 275 275 274 274 273 273 272 272 271 271 270 270 269 269 270 270 270 270 269 269 268 268 268 267 267 267 267 267 266 266 266 266 266 266 266 266 266 266 266 266 266 266 266 266 266 266 266 267 267 267 267 268 268 268 269 269 270 270 270 270 270 270 270 271
290 290 289 287 287 287 286 285 285 284 284 283 282 281 281 279 279 278 277 277 276 275 275 274 274 273 273 272 271 271 271 270 269 269 269 269 269 269 269 269 269 268 267 267 267 267 267 266 266 266 266 266 266 266 265 265 265 265 265 265 265 265 265 265 266 266 266 266 266 266 267 267 267 267 268 268 268 269 269 269 269 269 269 269 269
291 291 289 288 288 287 287 286 286 285 285 284 283 282 281 280 279 278 277 276 276 275 275 274 274 273 272 272 271 271 270 270 269 269 269 268 268 268 268 268 268 268 267 267 267 267 266 266 266 265 265 265 265 265 265 265 265 265 265 265 265 265 265 265 265 265 265 266 266 266 266 266 267 267 267 267 267 268 268 268 268 268 269 269 268
291 290 289 288 288 288 288 288 287 286 286 285 284 283 282 281 280 278 277 276 276 276 275 274 274 273 273 272 271 271 270 270 269 269 268 268 268 268 268 268 268 267 267 267 266 266 266 266 265 265 265 265 265 265 265 265 264 264 264 264 264 264 265 265 265 265 265 265 265 266 266 266 266 266 266 266 267 267 267 267 267 268 268 268 268
290 290 289 288 288 288 288 288 288 287 286 286 285 284 283 281 280 279 278 277 277 276 274 274 274 273 273 272 271 271 270 270 269 269 268 268 268 268 268 267 267 267 267 266 266 266 266 265 265 265 265 265 265 264 264 264 264 264 264 264 264 264 264 264 264 264 265 265 265 265 265 265 265 265 266 266 266 266 266 267 267 267 267 267 268
290 290 290 289 288 289 289 288 288 287 287 286 285 284 282 281 280 278 277 277 276 275 274 274 274 273 273 272 271 270 270 269 269 268 268 268 267 267 267 267 267 267 266 266 266 266 265 265 265 265 264 264 264 264 264 264 264 264 264 264 264 264 264 264 264 264 264 264 264 264 264 265 265 265 265 265 266 266 266 266 266 266 267 267 267
291 290 290 289 288 288 288 288 288 288 287 286 284 283 282 281 279 278 277 276 276 275 274 274 273 273 273 272 271 270 270 269 269 268 268 267 267 267 267 267 266 266 266 266 266 265 265 265 264 264 264 264 264 264 264 263 263 263 263 263 263 263 263 263 263 263 263 264 264 264 264 264 264 264 265 265 265 265 265 265 266 266 266 266 266
291 291 290 288 287 288 287 287 287 287 287 286 284 283 282 280 279 278 277 276 275 275 274 274 273 273 272 272 271 270 269 269 269 268 268 267 267 267 267 266 266 266 266 265 265 265 265 264 264 264 264 264 263 263 263 263 263 263 263 263 263 263 263 263 263 263 263 263 263 263 263 263 264 264 264 264 264 265 265 265 265 266 266 266 266
292 291 289 288 288 288 287 287 287 286 286 286 285 283 281 280 279 277 276 276 275 275 274 274 273 273 272 272 271 270 269 269 268 268 268 267 267 267 266 266 266 266 266 265 265 265 264 264 264 264 263 263 263 263 263 263 263 262 262 262 262 262 262 262 262 262 262 262 262 263 263 263 263 263 263 263 264 264 264 265 265 265 265 265 266
291 291 289 288 288 288 287 287 287 287 287 286 284 283 281 280 278 277 276 276 275 275 274 273 273 272 272 271 270 270 269 269 268 268 267 267 267 267 266 266 266 265 265 265 265 264 264 264 263 263 263 263 263 262 262 262 262 262 262 262 262 262 262 262 262 262 262 262 262 262 262 262 262 262 262 263 263 263 264 264 264 264 265 265 265
291 291 290 289 288 287 287 287 287 286 286 285 284 282 281 279 278 277 276 276 275 274 274 273 273 272 271 271 270 269 269 268 268 267 267 267 267 266 266 266 266 265 265 265 264 264 263 263 263 263 262 262 262 262 262 262 262 261 261 261 261 261 261 261 261 261 261 261 261 261 261 262 262 262 262 262 262 263 263 263 264 264 264 265 265
291 290 290 289 287 286 286 287 286 285 285 284 283 282 280 279 278 277 276 275 274 274 274 273 272 271 271 270 270 269 269 268 268 267 267 267 266 266 266 266 265 265 265 264 264 263 263 263 263 262 262 262 262 262 261 261 261 261 261 261 261 261 261 261 260 261 261 261 261 261 261 261 261 261 262 262 262 262 263 263 263 263 264 264 265
290 289 289 288 287 286 285 285 286 285 285 284 282 281 280 279 278 277 276 275 274 274 273 272 272 271 271 270 269 269 269 268 268 267 267 266 266 266 266 265 265 265 264 264 263 263 263 263 262 262 261 261 261 261 261 261 261 261 261 261 260 260 260 260 260 261 261 261 261 261 262 262 262 262 262 262 262 262 262 263 263 263 263 264 264
289 289 288 288 288 286 284 285 286 286 285 284 283 282 281 279 278 276 275 275 274 274 273 272 271 271 270 270 269 269 268 268 267 267 267 266 266 266 265 265 264 264 264 263 263 263 262 262 262 261 261 261 260 260 260 260 261 261 261 260 260 260 260 261 261 261 262 262 262 262 262 262 262 263 263 263 263 263 263 263 263 263 263 264 264
289 288 288 287 287 286 284 284 285 285 285 284 284 283 281 279 278 276 275 275 274 273 272 271 271 270 270 270 269 268 268 267 267 267 266 266 265 265 265 264 264 264 263 263 263 262 262 261 261 261 260 260 260 260 260 261 261 261 261 261 261 261 261 262 262 262 262 263 263 263 263 263 263 263 263 263 263 264 263 263 264 264 264 264 264
288 288 287 287 286 285 284 284 285 284 284 284 283 282 281 278 277 276 275 274 274 273 272 271 271 270 270 269 269 268 268 267 267 266 266 265 265 265 264 264 264 263 263 263 262 262 261 261 261 260 260 260 260 260 261 261 261 261 262 262 262 262 263 263 263 263 263 263 264 263 263 263 263 264 264 264 264 264 264 264 264 265 265 264 265
288 287 286 286 285 285 284 285 285 284 284 283 283 282 280 278 277 276 275 274 273 272 271 271 271 270 270 269 268 268 267 267 266 266 266 265 265 264 264 263 263 263 262 262 262 261 261 260 260 260 259 259 260 260 261 261 262 263 264 264 264 264 264 264 264 264 264 264 264 264 263 263 263 264 264 264 264 265 265 266 266 266 266 266 266
287 286 285 285 285 285 285 285 285 285 284 283 282 281 279 277 276 275 274 273 272 272 271 271 270 270 269 268 268 267 267 266 266 266 265 265 264 264 263 263 263 262 262 262 261 261 260 260 260 259 259 259 260 260 261 261 262 264 264 265 265 265 265 264 264 264 264 264 263 263 263 263 263 263 264 264 265 265 266 266 266 267 267 267 267
286 285 285 285 285 285 285 284 284 284 283 283 282 280 279 277 276 274 273 272 272 271 271 270 270 269 269 268 267 267 266 266 266 265 265 264 264 263 263 263 262 262 262 261 260 260 260 260 259 259 259 259 260 261 261 261 262 263 264 265 265 264 264 264 263 263 263 263 263 263 263 263 263 264 264 265 265 265 265 265 266 266 267 267 268
286 286 285 285 285 284 283 283 282 282 282 281 281 279 278 276 275 273 272 272 271 271 270 270 269 269 268 267 267 266 266 265 265 265 264 264 263 263 263 262 262 261 261 260 260 260 259 259 259 259 259 259 260 261 261 261 262 264 264 265 264 264 263 263 262 262 262 262 262 262 263 263 264 264 264 264 265 265 265 265 266 266 266 267 267
285 285 284 283 283 282 281 281 280 280 280 280 279 278 276 274 273 272 272 271 271 270 270 269 269 268 267 267 266 266 265 265 265 264 264 263 263 263 262 262 261 261 260 260 260 259 259 259 259 259 258 258 260 261 260 261 263 263 264 264 264 263 262 262 262 262 262 262 262 263 263 263 264 264 264 265 265 265 266 266 266 266 267 267 267
284 283 282 281 280 279 279 279 279 279 279 278 277 275 274 273 272 272 271 271 271 270 269 268 268 267 267 266 266 265 265 265 264 264 263 263 263 262 262 261 261 260 260 259 259 259 258 258 258 258 258 258 259 260 260 261 262 263 263 263 263 262 262 262 262 262 262 263 263 263 263 264 264 264 264 265 265 266 266 266 267 267 267 268 268
282 280 279 279 278 278 278 278 277 277 276 276 274 273 273 272 272 272 271 270 270 269 268 268 267 267 266 266 265 265 265 264 264 263 263 263 262 262 261 261 260 260 259 259 258 258 258 258 258 258 258 258 259 260 260 260 262 263 263 263 262 262 262 262 262 262 263 263 263 263 264 264 264 264 264 264 265 266 266 267 267 267 267 268 268
279 278 277 277 277 277 277 276 276 275 274 274 273 273 272 272 271 271 270 270 269 268 268 267 267 266 266 265 265 265 264 264 263 263 263 262 262 261 261 260 260 259 259 258 258 258 257 257 257 257 258 257 258 259 260 260 261 262 262 262 262 262 262 262 262 263 263 263 263 263 263 263 264 264 264 265 266 266 267 267 267 267 267 267 267
278 277 276 276 276 276 276 275 275 274 274 273 272 272 271 271 271 270 269 269 268 268 267 267 266 266 265 265 264 264 264 263 263 263 262 262 261 261 260 260 259 259 258 258 258 257 257 257 257 257 257 257 257 258 259 259 260 261 262 261 262 262 262 263 263 263 263 263 263 263 263 263 264 264 264 265 266 266 266 266 267 267 267 267 267
277 276 276 275 275 275 275 274 274 274 273 272 272 272 271 270 270 269 269 268 268 267 267 266 266 265 265 264 264 264 263 263 262 262 261 261 261 260 260 259 259 259 258 258 257 257 256 256 257 257 257 257 257 258 259 259 259 261 262 262 262 263 263 263 263 263 263 263 263 263 263 262 263 263 264 265 265 266 266 266 266 266 266 266 266
276 276 275 275 275 274 274 273 272 272 272 272 272 271 270 269 269 268 268 268 267 267 266 266 265 265 264 264 264 263 263 262 262 261 261 260 260 260 259 259 259 258 258 257 257 256 256 256 256 256 257 257 258 258 258 259 259 260 262 262 263 263 263 263 263 263 263 263 262 262 261 261 261 262 263 264 265 266 266 266 265 265 265 266 266
276 275 274 274 273 272 272 271 271 271 271 271 271 270 269 268 268 268 267 267 267 266 266 265 265 264 264 264 263 263 262 262 261 261 260 260 260 260 259 259 258 258 257 257 256 256 255 255 256 256 257 257 258 258 258 258 259 260 261 262 263 263 263 263 263 263 262 261 261 260 260 260 261 262 263 264 265 265 265 264 264 264 265 265 264
275 274 273 272 271 271 270 270 270 270 270 269 269 268 268 268 267 267 266 266 266 265 265 265 264 264 263 263 262 262 262 261 261 260 260 260 259 259 259 258 258 257 257 256 256 255 255 255 255 256 257 257 258 258 258 258 258 259 261 262 262 263 263 263 263 262 261 260 260 260 260 260 261 263 264 264 265 264 263 263 263 264 264 263 262
274 272 271 270 270 270 269 269 269 269 268 268 268 267 267 267 266 266 266 266 265 265 264 264 263 263 263 262 262 262 261 261 260 260 259 259 259 259 258 258 257 257 256 255 255 255 255 254 255 255 256 257 257 257 258 258 258 258 260 261 262 262 263 263 262 261 260 260 260 260 261 262 263 263 264 264 263 262 262 262 262 262 261 260 259
272 270 270 270 269 269 269 269 268 268 267 267 267 266 266 266 266 265 265 265 265 264 264 263 263 262 262 262 261 261 261 260 260 259 259 259 258 258 258 257 257 256 256 255 255 255 255 255 255 255 256 256 257 257 257 258 258 258 259 260 261 262 262 261 261 260 260 260 260 261 262 262 262 262 262 262 261 261 260 261 260 260 259 258 257
270 269 269 269 269 269 268 268 268 267 267 266 266 265 265 265 265 265 264 264 264 263 263 263 262 262 261 261 261 260 260 260 259 259 258 258 258 257 257 257 256 256 255 255 255 255 255 255 255 255 256 256 257 257 257 258 258 258 258 259 260 260 260 260 260 260 260 260 260 261 261 261 261 261 261 260 260 259 259 259 258 258 257 257 256
269 269 268 268 268 268 268 267 267 266 266 265 265 265 265 264 264 264 264 263 263 263 262 262 262 261 261 260 260 260 259 259 258 258 258 258 257 257 257 257 256 256 256 255 255 255 255 255 255 255 256 256 256 257 257 258 258 258 259 259 259 259 259 260 260 260 260 260 260 260 260 260 261 261 260 259 259 258 258 257 257 256 256 256 256
268 268 268 268 267 267 266 266 265 265 265 264 264 264 264 264 263 263 263 263 262 262 262 261 261 261 260 260 260 259 259 258 258 258 257 257 257 257 257 257 257 256 256 256 256 256 256 256 256 256 256 256 256 256 257 258 259 259 259 259 259 259 259 260 260 260 260 260 260 260 260 260 260 260 259 258 258 257 257 256 256 255 255 255 255
267 267 267 267 266 266 265 265 264 264 264 263 263 263 263 263 262 262 262 262 262 261 261 261 260 260 260 259 259 258 258 258 258 257 257 257 257 257 257 257 257 257 257 257 257 257 257 257 257 257 257 256 256 257 258 259 260 260 260 260 260 260 260 260 260 261 261 261 261 260 260 259 259 258 258 257 256 256 256 255 255 255 255 255 255
267 266 266 266 265 265 264 264 263 263 263 262 262 262 262 262 261 261 261 261 261 261 260 260 260 259 259 259 258 258 258 257 257 257 257 257 257 257 257 258 258 258 258 258 258 259 259 259 259 259 258 258 258 259 260 260 261 261 261 261 261 261 261 261 261 261 261 261 260 259 259 258 258 257 256 256 255 255 255 255 254 254 254 254 254
266 266 265 265 264 264 263 263 263 262 262 262 262 261 261 261 261 260 260 260 260 260 260 259 259 259 258 258 258 257 257 257 257 257 257 257 257 257 257 258 258 259 259 259 260 261 261 261 260 260 260 260 260 260 260 261 261 261 261 261 261 261 261 262 261 261 260 260 259 258 257 257 256 256 255 255 255 254 254 254 254 254 254 254 254
Wind_Speed
8 9 8 8 7 7 6 7 8 8 7 7 8 7 6 5 4 4 6 7 8 9 10 11 11 12 13 11 10 8 4 4 6 9 11 11 11 11 11 12 11 8 6 7 6 8 9 9 10 11 10 10 9 8 8 8 9 12 13 12 12 13 14 12 13 18 19 18 19 22 24 22 20 19 19 19 19 17 13 15 17 19 21 21 18
9 9 8 8 8 8 7 6 6 7 6 5 5 5 4 3 2 2 3 5 7 9 10 10 10 11 12 12 11 10 7 5 7 8 10 10 10 11 12 12 11 7 6 7 7 8 10 10 11 12 11 9 8 7 7 7 8 11 13 12 11 12 13 12 13 15 13 14 16 17 18 18 15 14 15 15 13 11 11 13 12 10 14 17 16
7 9 10 10 10 10 9 9 8 7 6 6 5 4 3 3 1 1 2 4 6 8 9 10 10 10 11 12 11 11 9 7 7 8 10 10 10 11 12 11 9 7 7 8 8 9 10 11 12 12 11 9 8 9 7 7 10 12 12 13 13 13 13 13 13 12 13 16 14 8 6 8 8 8 10 13 13 14 15 13 8 5 7 9 11
7 9 12 13 12 12 12 11 11 10 8 7 6 5 3 2 1 1 2 4 5 7 8 9 10 10 11 12 12 10 10 9 7 7 10 11 11 12 12 9 7 6 7 8 9 9 10 11 12 12 10 9 8 9 8 9 11 12 12 13 13 14 15 14 13 12 13 13 8 5 5 4 3 5 13 20 20 17 14 10 9 10 9 8 8
8 8 12 15 15 15 15 14 13 13 12 9 7 6 4 4 3 2 3 3 5 6 8 9 10 10 11 12 12 10 10 9 7 8 9 11 11 10 10 9 7 5 6 8 8 9 10 11 12 12 11 10 9 8 9 10 11 12 12 13 12 13 14 15 15 13 12 10 7 5 4 3 3 7 15 15 14 15 15 14 15 15 14 13 13
10 10 13 17 18 18 17 17 16 16 15 12 9 8 6 5 5 4 4 4 4 5 7 8 9 10 11 12 12 10 10 9 7 9 10 10 10 10 10 10 8 5 5 7 8 9 10 11 11 12 11 10 9 9 9 10 12 12 11 12 12 11 12 14 16 15 14 13 11 8 6 5 6 10 8 5 10 16 17 16 16 16 18 19 19
9 12 15 18 19 20 20 20 20 19 17 14 12 10 8 7 6 5 5 5 5 6 6 7 9 9 10 11 11 10 11 11 9 10 11 10 10 10 11 10 9 6 6 8 9 9 9 9 9 10 11 10 8 8 8 10 12 11 10 11 11 11 12 14 15 15 15 14 13 13 14 13 12 9 5 4 8 10 10 15 18 20 23 23 22
8 9 13 18 21 22 24 24 23 21 18 16 15 12 9 8 7 6 6 6 6 7 7 8 8 9 10 11 11 11 12 12 11 10 10 10 11 11 11 11 10 7 6 8 8 8 7 7 9 10 10 9 8 7 8 10 10 10 11 11 10 10 11 12 13 13 13 14 17 18 18 18 17 15 11 9 6 6 10 13 16 19 21 21 20
11 10 14 19 23 25 26 26 25 22 19 17 16 13 11 9 8 7 8 8 8 8 9 9 9 9 10 11 12 12 13 13 12 11 11 12 12 12 11 11 9 7 6 7 7 7 7 8 9 10 9 7 7 7 9 10 10 10 11 10 11 11 10 11 12 12 12 14 16 17 17 17 18 17 15 12 8 8 8 6 10 15 16 17 18
12 15 19 23 26 28 27 26 25 24 21 19 16 14 13 12 10 9 9 9 10 10 11 10 9 9 10 11 12 13 13 13 13 13 13 13 13 12 11 10 9 8 7 7 7 7 8 8 9 10 8 6 7 8 9 10 10 10 11 11 11 11 11 11 11 12 13 14 14 14 15 14 13 11 11 13 11 9 8 7 10 12 12 16 18
10 13 19 24 25 25 25 25 26 25 23 21 19 17 15 14 12 12 11 11 12 12 13 12 10 10 11 11 12 13 13 12 13 13 13 12 13 13 12 11 10 8 8 8 9 9 9 9 10 10 9 7 8 9 10 10 10 10 11 11 11 11 12 13 13 14 14 14 14 13 13 13 11 10 11 13 10 8 9 8 10 14 16 19 18
9 10 15 20 21 21 23 26 27 26 25 24 22 20 17 16 15 14 14 13 13 14 15 13 12 12 11 12 13 14 13 12 13 14 14 13 13 14 13 12 11 9 8 10 10 10 11 11 11 11 10 9 10 10 11 10 10 11 11 11 11 12 13 13 14 15 14 15 15 14 14 14 14 13 13 14 12 12 12 8 11 15 16 18 19
10 9 11 15 18 21 24 26 27 27 27 27 25 22 19 18 17 17 17 15 15 16 16 15 14 13 12 13 14 14 13 13 14 15 14 14 14 14 14 13 12 10 10 11 10 11 12 12 12 12 11 11 11 11 11 10 10 11 12 12 12 12 13 13 14 15 15 15 15 16 16 17 17 17 16 16 15 16 15 10 13 15 13 16 20
10 10 10 13 19 23 25 27 27 28 29 28 26 24 21 20 20 21 20 17 16 17 16 16 15 14 13 14 15 15 15 14 14 15 15 14 14 14 15 14 12 11 11 11 11 12 12 13 13 12 11 11 12 11 11 11 11 12 12 12 13 14 14 14 14 15 16 16 16 17 17 18 18 17 17 17 15 16 15 12 13 13 13 16 18
9 10 11 16 23 25 26 27 28 29 29 27 26 25 24 24 23 23 23 20 19 18 17 17 16 14 14 15 16 16 16 15 15 16 16 15 14 14 15 15 14 13 12 12 12 13 13 13 13 12 12 12 12 11 11 12 12 12 12 13 14 15 15 15 16 16 17 17 17 17 18 18 18 17 17 16 15 15 15 14 13 10 9 11 11
9 9 11 18 25 26 26 27 28 29 28 27 27 27 26 27 26 26 25 23 21 20 19 17 16 14 15 16 17 18 18 17 17 17 18 17 15 14 15 15 15 14 12 12 13 13 13 14 13 13 12 12 11 12 12 12 12 13 14 14 15 15 16 16 17 17 18 18 18 18 18 18 18 17 17 17 17 17 17 17 15 10 8 7 7
10 10 12 18 23 25 27 28 29 29 29 29 29 29 29 29 28 28 27 25 23 21 20 18 16 14 16 17 19 20 20 19 19 18 18 17 17 16 15 15 15 14 13 13 14 14 14 14 14 14 12 12 12 13 13 13 13 14 14 15 15 15 16 17 17 18 18 18 19 18 18 19 19 19 20 20 19 20 19 18 17 15 11 8 6
12 12 14 18 22 24 27 29 31 32 32 32 32 32 32 31 31 30 30 28 26 24 22 20 17 16 17 18 20 21 21 20 20 19 17 17 17 17 16 15 15 14 14 14 15 15 15 15 15 14 13 13 13 13 13 14 14 15 15 15 16 16 16 17 17 17 18 18 19 20 20 21 21 21 21 20 20 20 20 19 19 18 16 12 8
11 11 12 16 21 25 28 29 31 32 33 34 34 33 33 33 33 33 32 30 27 25 23 22 19 18 18 19 20 21 21 21 20 19 18 18 18 18 17 17 15 15 15 15 15 15 15 15 15 14 14 14 14 14 15 16 15 15 15 16 16 16 16 17 17 18 18 19 19 20 20 21 21 21 21 21 21 21 21 21 20 19 19 18 15
11 11 10 14 21 26 28 29 31 33 34 35 34 33 34 34 34 34 33 30 27 26 25 24 21 19 18 19 20 21 21 21 20 19 18 19 19 18 17 17 16 16 16 15 15 15 15 15 15 14 14 14 15 15 16 16 16 16 16 16 16 16 16 17 18 18 18 19 20 21 21 21 21 21 22 22 22 22 21 22 22 21 21 21 20
11 10 10 14 20 25 27 29 31 32 33 33 33 34 35 34 34 34 34 31 29 28 27 26 23 20 19 20 21 21 21 21 20 20 20 20 19 18 18 18 17 17 16 16 16 16 16 15 15 15 15 15 16 16 16 16 16 16 16 16 17 17 18 19 19 19 19 19 20 21 21 22 21 22 22 22 22 22 22 23 23 23 23 22 22
11 10 10 13 19 23 26 28 29 29 30 31 33 34 34 35 35 35 34 33 31 30 29 26 23 20 20 21 21 22 22 22 22 21 21 21 20 19 19 18 18 17 16 16 16 16 16 15 15 15 16 16 16 17 17 16 16 17 18 18 18 18 19 20 20 20 20 20 20 21 22 22 21 22 23 22 23 22 22 23 23 22 23 23 22
11 10 11 15 19 23 25 26 27 29 30 31 32 33 34 36 36 35 35 34 33 32 30 26 22 20 21 21 22 22 22 22 23 22 22 21 21 20 20 19 18 17 17 17 17 17 16 15 16 16 16 17 17 17 17 17 18 19 20 20 20 20 20 21 21 21 22 21 22 22 23 22 22 22 23 22 22 22 22 23 24 23 24 24 23
11 10 11 15 19 21 21 23 26 28 30 30 32 33 35 35 35 36 36 36 35 33 29 25 22 21 21 22 22 23 22 23 23 23 22 22 21 21 20 19 18 18 18 18 18 17 16 16 16 17 17 17 17 17 18 19 20 20 21 21 21 21 22 22 23 23 23 23 23 23 23 23 23 23 24 24 23 23 24 24 25 24 24 25 24
10 10 10 12 15 16 19 22 25 26 28 29 30 32 34 35 35 36 36 36 35 32 29 25 22 21 21 22 22 22 22 23 23 23 22 22 22 21 20 19 18 18 18 18 17 17 16 16 17 17 17 17 17 18 19 21 21 21 21 22 23 23 24 23 23 24 24 23 23 24 24 24 24 24 24 25 24 24 24 24 24 24 23 23 23
10 10 9 9 10 13 17 20 21 22 24 26 28 30 32 34 36 37 36 35 34 31 28 25 23 21 21 22 22 22 22 23 23 23 22 22 21 20 20 19 19 19 18 18 17 17 17 18 18 18 17 18 19 19 20 21 22 22 23 24 24 25 25 24 25 24 24 23 23 24 24 24 24 25 26 26 26 26 26 26 26 26 25 25 25
8 8 7 8 8 10 14 17 18 19 21 25 28 30 32 33 35 36 35 34 32 30 27 25 22 21 21 21 22 22 22 22 22 22 22 22 21 20 20 19 19 19 18 18 18 18 19 19 19 19 19 20 21 21 21 22 23 24 24 25 25 26 25 25 25 24 23 23 24 24 25 25 25 26 27 28 28 29 29 29 29 29 27 26 25
8 8 7 8 8 8 11 15 18 19 20 23 27 30 33 34 34 35 34 33 31 29 27 24 21 20 20 21 21 21 21 21 21 21 21 21 21 20 19 19 19 19 19 19 19 20 20 20 20 21 21 21 21 21 22 22 23 23 24 25 25 25 25 25 25 25 25 25 26 26 27 27 27 28 29 30 30 30 31 32 32 30 29 27 25
8 8 7 8 8 7 10 15 18 19 21 23 24 27 29 30 31 32 33 32 30 28 26 23 21 20 20 20 20 19 20 20 19 20 20 20 20 19 19 19 19 19 19 19 20 20 21 21 22 23 22 21 20 21 21 21 22 22 23 24 24 24 25 26 26 26 27 27 27 27 28 28 29 29 30 31 32 32 32 33 33 31 29 28 26
9 8 8 8 7 8 12 16 18 20 22 23 23 23 24 26 28 30 31 31 29 27 24 22 20 19 19 19 18 18 19 19 19 19 20 20 20 19 19 19 19 20 20 20 20 21 22 23 23 23 21 20 21 21 20 20 21 22 23 24 25 25 26 26 25 25 26 26 26 27 27 27 27 28 29 31 32 33 33 34 34 33 32 31 28
9 8 8 8 9 11 15 18 21 24 25 25 24 22 22 24 27 29 30 29 26 24 21 19 17 17 17 17 17 18 18 18 18 19 20 20 20 19 19 20 20 21 21 21 21 22 23 23 22 22 21 21 21 20 19 20 21 22 23 25 25 25 24 24 24 24 25 25 24 24 25 25 26 28 30 31 31 31 32 33 34 34 35 36 35
9 9 10 12 12 14 18 22 26 28 28 27 26 21 19 22 25 26 26 25 22 19 16 15 15 15 15 16 17 17 18 18 18 19 20 20 20 20 20 20 21 21 21 21 22 23 23 23 22 22 22 22 21 20 19 20 22 23 24 25 26 25 24 24 24 24 25 24 23 24 25 27 28 28 29 29 29 29 30 31 32 34 34 37 39
9 11 12 13 15 17 21 25 27 28 28 27 23 18 17 19 20 20 20 19 16 13 12 13 13 14 14 15 16 17 17 18 18 19 20 20 20 20 21 21 22 22 22 22 22 23 23 23 23 22 22 22 21 20 19 20 22 24 24 25 26 24 22 23 23 23 23 23 23 25 26 26 26 26 26 27 28 30 31 31 33 34 35 37 38
11 12 13 14 18 22 25 27 28 29 29 26 20 16 15 15 17 16 15 13 11 10 11 11 12 12 13 14 15 16 16 17 17 18 19 19 20 21 21 22 22 22 22 22 23 24 24 23 23 22 23 23 22 20 20 21 23 24 24 24 25 24 22 22 22 21 22 23 23 24 25 25 25 25 26 27 29 31 32 32 34 35 36 37 37
13 13 15 18 23 26 28 29 30 30 29 24 18 14 12 12 13 11 9 8 8 8 9 10 10 11 11 13 14 15 15 16 17 18 19 20 20 21 22 22 22 21 22 23 23 24 24 23 23 23 24 24 22 20 20 22 24 24 24 24 26 25 23 22 21 21 22 23 23 24 25 25 25 25 26 26 28 30 31 32 34 34 35 36 36
15 17 20 24 28 28 29 30 31 30 27 20 13 9 7 6 5 4 4 6 7 8 9 10 9 9 11 13 14 14 15 16 17 18 19 20 21 21 22 22 22 22 22 23 23 23 23 23 23 23 24 25 23 20 20 22 23 24 24 25 27 26 24 23 23 23 23 23 23 23 23 24 24 25 25 26 28 30 31 31 32 32 32 33 32
21 24 26 29 31 31 31 31 31 28 22 13 7 3 2 2 3 5 6 7 7 9 9 9 8 10 12 13 13 14 15 16 17 18 19 20 21 21 22 22 22 22 23 23 23 23 23 24 24 24 25 26 25 21 20 22 23 24 25 27 27 25 23 24 24 24 23 21 20 20 21 23 25 26 26 27 29 30 30 30 29 28 28 28 28
23 25 28 31 31 31 30 29 28 24 18 12 9 8 7 7 7 8 8 8 9 9 9 9 10 11 12 13 14 14 16 17 18 19 20 21 21 22 22 22 22 22 23 23 23 24 25 25 25 25 25 26 26 24 22 22 24 24 25 27 26 24 23 25 25 23 20 19 20 22 23 24 25 26 26 28 29 29 29 29 28 27 28 30 30
23 25 28 29 30 29 28 27 26 22 17 13 12 12 11 11 10 9 8 8 9 10 10 11 12 12 13 13 14 15 16 17 18 19 20 21 21 22 23 22 22 22 23 24 24 25 25 25 25 25 25 26 27 26 24 23 24 24 25 26 26 25 24 23 21 20 20 22 24 24 21 20 22 25 27 29 30 31 31 31 29 28 27 26 27
23 27 28 29 28 26 26 26 25 23 20 17 16 16 14 12 9 8 9 10 10 11 11 11 12 12 13 14 14 16 17 17 18 19 20 21 21 22 22 22 23 23 23 24 25 25 26 26 26 26 26 26 28 28 25 23 23 24 25 25 24 22 20 19 19 21 23 23 20 18 18 19 23 26 29 31 32 32 33 32 28 24 22 23 26
25 27 27 26 25 25 25 26 26 26 25 22 18 16 13 10 9 9 10 10 10 11 11 12 13 13 14 15 16 17 17 18 19 19 20 20 21 21 22 22 23 24 24 25 26 25 26 27 27 27 27 27 26 26 24 21 21 24 24 23 22 20 19 20 22 22 20 16 15 17 21 23 24 26 29 31 32 32 30 26 22 20 22 25 26
25 24 24 24 25 25 26 27 28 29 26 21 16 13 11 10 11 11 11 11 11 12 12 13 13 14 15 17 17 17 18 18 18 18 18 19 20 21 22 23 24 25 25 26 26 26 26 27 28 28 27 26 24 24 23 21 21 22 23 22 22 22 21 21 21 18 14 14 18 22 24 25 24 26 28 30 30 29 26 24 23 24 26 26 25
22 22 24 26 25 24 24 26 26 25 21 18 16 15 14 14 14 13 12 12 12 13 12 13 14 15 16 17 17 18 18 18 18 18 18 20 21 22 23 24 25 26 26 25 26 26 25 26 28 28 27 26 24 23 23 22 21 21 22 23 23 23 22 21 19 16 16 19 23 24 25 26 26 27 29 28 27 26 26 27 28 28 28 27 26
20 22 25 26 24 21 23 24 21 20 19 19 19 19 18 17 16 14 14 14 13 13 13 14 15 16 17 18 18 18 18 18 19 19 20 21 23 23 24 26 26 25 24 24 25 25 24 24 26 27 27 27 26 25 24 23 23 22 22 23 24 24 23 21 20 21 22 23 25 25 26 27 27 27 27 26 26 29 30 29 27 26 26 26 26
20 23 26 25 22 20 21 20 17 17 19 20 21 21 19 17 16 16 15 15 14 14 14 15 17 18 18 19 19 19 20 20 20 20 20 22 23 24 25 26 26 24 23 23 24 24 23 23 24 25 27 28 27 26 25 24 24 23 23 24 24 24 23 22 23 24 25 24 25 26 27 27 27 26 25 24 27 30 28 25 24 23 24 24 24
23 25 26 24 22 20 20 18 16 17 19 20 21 20 18 17 18 18 17 16 16 16 17 18 18 19 19 19 19 20 21 21 21 21 21 23 23 24 25 25 25 24 23 23 23 23 23 23 24 25 27 27 27 26 26 26 26 25 25 26 26 25 25 24 25 26 25 25 26 27 27 27 24 21 21 23 27 27 25 23 23 23 22 22 22
23 24 24 23 21 19 19 17 17 18 19 21 21 20 18 18 19 19 18 18 18 17 18 19 19 19 19 19 19 20 21 22 22 22 22 23 23 24 24 25 25 24 23 22 23 23 22 22 24 25 26 27 27 26 27 27 27 27 28 29 28 28 27 26 27 27 26 26 27 27 25 24 22 21 22 24 25 24 24 24 23 22 21 20 19
23 23 23 21 19 18 18 18 19 20 21 22 21 20 19 19 19 19 18 18 18 18 18 19 19 19 20 20 20 21 21 22 22 22 22 23 23 23 24 25 26 25 24 24 24 24 25 25 26 26 26 26 26 27 28 29 30 30 30 30 29 29 28 27 27 25 24 24 26 25 22 20 20 22 24 24 23 22 21 21 21 21 20 19 19
21 21 21 19 18 18 19 20 20 21 22 22 22 21 21 20 19 19 18 18 18 18 19 20 20 20 20 21 21 21 21 22 23 23 23 23 24 23 24 27 27 26 25 25 26 28 29 29 29 28 27 26 27 29 31 31 31 30 30 30 29 28 25 22 20 20 22 24 22 19 17 17 18 21 21 21 20 20 20 20 20 19 19 19 20
19 19 19 19 18 19 20 21 21 22 22 22 22 22 21 20 20 19 18 18 19 19 20 20 20 21 21 21 21 21 21 21 22 23 23 24 25 24 23 25 27 26 25 24 26 29 31 30 28 28 28 27 28 30 30 29 29 29 28 26 25 22 20 20 22 24 24 22 17 14 14 16 18 18 18 18 18 19 19 20 20 19 18 19 18
18 18 19 19 19 20 21 21 21 22 22 22 23 23 22 21 20 19 18 18 19 19 21 22 21 22 22 22 21 22 22 21 22 22 23 24 26 27 26 25 25 25 25 25 25 27 29 28 25 25 24 24 24 25 25 25 26 25 22 20 20 21 22 24 23 19 16 13 12 13 15 16 16 16 15 16 17 17 18 19 20 20 19 18 17
Wind_Direction
148 147 156 158 161 161 150 143 138 134 130 123 120 119 116 110 86 61 55 45 40 36 32 28 21 18 18 15 10 7 341 290 287 294 300 303 302 304 311 319 325 329 328 326 324 318 312 304 305 311 312 314 315 315 318 319 324 328 324 318 318 315 306 300 306 318 322 319 313 308 301 295 289 285 280 280 289 292 297 304 294 277 268 262 263
161 166 175 178 183 187 192 186 170 163 159 154 141 131 132 129 109 68 44 33 31 30 29 25 19 15 10 7 360 354 346 309 286 289 293 294 296 299 310 318 324 334 336 331 326 321 320 313 316 325 324 324 325 319 320 324 329 331 329 325 320 320 319 312 314 328 335 328 320 312 309 306 299 288 280 281 288 285 292 312 313 288 269 261 263
182 184 188 194 200 200 205 211 210 201 187 186 183 166 161 156 139 84 22 16 18 19 19 16 13 8 1 360 353 345 343 322 293 281 279 280 287 296 308 320 327 337 336 326 319 320 323 316 318 328 328 330 333 325 324 333 337 334 334 337 330 323 319 313 317 331 336 329 322 306 309 317 305 304 301 290 288 293 297 305 316 318 291 274 270
193 195 197 201 208 209 210 214 220 223 219 212 209 207 200 194 208 261 329 351 359 2 5 5 2 358 353 352 348 339 332 325 300 271 265 270 282 294 305 319 327 332 328 319 313 314 320 318 320 328 334 338 340 336 335 339 338 333 334 339 337 334 328 321 318 321 330 337 335 303 306 309 283 341 332 306 296 299 295 289 302 312 309 300 293
193 200 202 203 210 215 215 215 220 227 232 231 225 225 228 232 249 274 291 318 336 348 354 355 355 353 347 344 343 332 322 320 296 266 263 272 286 293 297 308 314 316 317 311 306 306 312 314 317 327 339 342 345 344 338 337 331 327 334 336 336 337 334 327 318 315 319 322 322 309 309 301 279 337 331 307 302 306 294 291 301 305 304 302 302
198 200 204 207 214 219 219 218 218 226 235 238 235 232 236 243 251 264 279 299 315 331 343 346 349 348 341 337 335 322 309 306 286 270 274 282 288 284 283 294 299 295 300 301 299 300 304 306 309 324 338 342 348 345 335 332 325 325 335 336 333 332 331 329 321 319 316 307 308 310 299 295 307 328 330 299 308 307 296 299 302 302 305 305 305
204 206 208 212 216 219 220 221 220 226 235 240 239 236 237 244 251 257 269 286 294 312 329 333 339 341 334 327 322 307 293 290 281 274 281 283 279 277 279 287 293 288 283 289 296 298 299 298 300 318 333 340 344 339 330 327 325 328 332 328 327 326 326 328 323 324 322 312 311 310 302 303 309 318 315 296 312 305 294 300 299 300 305 305 305
205 210 213 216 220 221 223 226 226 229 235 239 239 239 239 242 250 255 260 273 279 294 312 319 327 330 326 318 308 295 285 283 279 274 275 274 273 276 276 283 292 288 279 286 292 292 290 288 296 314 326 332 333 327 320 319 320 323 321 319 322 322 321 320 317 321 322 316 315 313 308 308 309 311 305 295 294 293 297 299 297 301 303 304 306
206 211 215 219 223 226 228 230 232 233 235 240 241 241 242 242 247 249 251 263 268 278 295 303 313 319 318 309 297 287 281 279 275 268 267 268 273 276 275 283 291 282 277 288 288 284 285 285 295 310 318 324 323 311 306 310 313 314 314 317 318 315 313 313 312 313 313 314 316 315 313 313 312 312 312 309 300 292 299 307 311 312 307 302 303
211 214 218 222 227 231 232 231 234 236 238 242 243 241 239 239 242 244 247 255 258 267 279 286 299 308 307 301 290 282 280 279 274 268 268 270 271 272 273 277 280 278 280 285 283 282 287 289 295 306 312 314 308 300 301 306 309 311 312 312 310 308 308 307 306 306 306 308 310 311 313 316 317 315 317 320 316 302 298 306 316 317 309 303 301
216 219 223 227 232 234 232 230 234 238 242 244 243 241 239 237 239 242 246 249 252 259 266 274 289 297 298 296 286 279 278 277 273 269 269 269 268 268 268 266 271 281 284 278 276 279 284 289 294 303 304 297 295 297 300 303 306 309 309 307 306 305 304 303 303 302 303 304 303 303 305 307 308 305 305 312 311 304 303 304 310 310 302 297 300
220 223 229 230 232 230 227 230 235 238 242 243 242 241 239 236 236 240 242 244 248 254 258 267 279 285 288 289 283 278 275 269 267 267 267 268 270 266 261 262 271 279 275 273 275 276 281 285 290 299 299 292 293 296 298 302 304 305 305 305 305 302 300 301 301 301 302 303 301 300 300 300 299 297 300 305 303 301 302 298 304 310 301 293 301
223 225 231 231 230 228 227 231 235 237 240 240 241 242 239 235 234 237 240 241 244 248 253 261 270 274 278 281 281 278 272 265 263 265 265 267 270 265 258 261 268 270 268 271 274 275 281 284 289 296 294 291 294 296 299 302 300 300 300 301 300 298 298 299 297 297 298 298 298 297 296 295 295 296 298 301 300 301 302 298 303 308 301 296 303
226 227 229 230 231 232 232 233 235 237 239 240 240 241 239 235 234 235 238 239 239 244 252 258 263 268 274 276 278 276 271 266 262 261 261 263 268 266 259 257 262 268 270 268 271 276 279 282 288 293 291 289 294 296 296 296 295 297 298 298 296 295 296 295 293 294 293 293 294 295 294 294 294 296 296 296 297 298 301 303 308 307 298 296 300
231 232 233 235 235 235 235 235 236 237 239 240 240 240 238 235 234 233 234 235 237 242 249 254 258 266 270 271 272 272 271 268 262 259 258 259 264 266 259 257 264 272 272 267 270 275 276 281 287 290 290 289 292 292 292 293 295 297 297 294 293 293 295 294 292 292 292 292 292 292 292 292 291 293 293 293 292 292 296 302 309 313 302 296 297
238 237 238 239 239 237 236 236 237 237 238 239 239 238 236 235 235 233 234 236 238 241 245 249 256 263 265 266 267 267 267 266 261 258 260 259 258 264 266 265 269 273 270 266 268 271 274 280 285 288 290 290 290 289 290 293 295 295 294 292 291 292 294 294 293 292 292 291 291 290 290 288 288 289 290 289 289 288 291 297 302 307 304 302 301
241 239 240 242 241 238 237 236 236 235 235 238 239 237 236 235 234 232 234 235 237 240 242 246 253 258 262 264 264 263 262 262 260 260 263 262 256 260 267 268 268 269 266 264 266 270 274 279 284 288 290 288 289 290 290 291 292 292 292 291 291 292 292 292 291 291 290 290 291 290 288 287 287 287 286 286 286 286 288 291 293 294 293 295 300
246 246 245 246 244 241 239 238 237 236 236 237 239 239 237 235 233 232 231 231 234 238 239 243 250 255 261 263 261 260 260 259 260 261 261 260 255 256 260 263 265 264 264 264 266 270 272 277 285 288 287 286 289 290 288 289 292 292 291 290 290 291 290 289 289 289 289 289 289 288 287 287 287 288 287 286 284 283 285 286 287 288 286 284 286
249 250 248 246 245 243 242 240 239 238 237 238 239 238 235 233 232 230 229 231 234 236 237 240 245 252 259 262 260 259 258 257 257 259 257 255 255 256 257 259 260 260 263 265 266 267 271 279 285 285 285 287 288 287 287 291 293 292 290 290 291 292 290 288 288 288 288 288 287 287 287 287 288 288 287 286 284 282 283 283 284 284 283 281 282
246 247 246 246 246 246 244 242 240 239 238 238 237 233 231 231 229 227 227 229 231 233 233 235 241 249 255 258 258 257 255 254 254 256 255 255 257 258 256 255 257 261 264 263 263 266 273 281 283 283 285 287 287 287 289 292 294 292 291 292 292 292 289 288 288 288 287 287 286 286 286 286 288 288 287 287 286 284 283 282 281 281 279 279 280
246 246 246 247 248 248 247 245 243 242 240 238 234 231 230 228 225 224 223 225 227 228 229 233 237 244 250 253 256 255 252 251 252 254 256 257 259 257 254 255 260 263 262 259 262 268 276 281 280 281 283 285 287 289 291 293 293 291 291 290 290 290 288 288 289 288 287 286 285 285 286 286 287 287 286 287 286 284 284 282 280 280 277 275 276
248 247 247 248 248 249 248 246 244 242 241 238 234 230 227 224 222 222 221 222 225 225 227 231 235 239 245 250 253 252 250 250 252 255 257 259 259 256 255 259 262 260 257 258 265 272 278 280 278 279 281 284 287 288 289 290 289 288 289 290 290 289 289 289 289 288 287 286 286 286 286 286 287 286 285 285 285 284 283 281 278 276 275 273 273
253 251 249 247 248 248 248 248 247 245 242 239 233 227 224 223 222 220 220 222 224 225 227 229 232 236 242 247 248 248 247 249 251 253 256 257 258 257 258 261 260 257 256 261 268 274 277 277 277 278 281 284 285 285 286 286 285 286 288 289 290 288 288 288 288 287 287 287 287 287 287 287 287 287 285 284 283 280 278 277 275 273 273 273 272
254 252 251 249 249 249 249 250 249 248 245 238 231 227 225 223 221 219 221 223 223 223 225 226 229 234 239 241 243 244 246 247 249 251 254 257 258 258 258 258 256 255 259 264 270 273 274 273 273 277 281 283 284 283 284 284 285 287 287 287 288 286 286 286 286 286 287 288 288 287 287 288 288 287 286 283 280 278 275 274 274 273 273 273 272
256 253 253 250 250 250 248 249 249 248 244 236 229 226 224 222 221 220 221 222 220 220 222 223 226 230 233 236 240 242 244 245 247 250 254 257 257 257 255 253 253 257 262 266 269 270 268 268 273 279 282 282 282 283 284 285 286 286 285 285 285 285 285 284 284 284 284 285 284 284 285 287 287 285 283 281 279 277 276 274 273 273 271 271 271
252 251 253 252 252 253 252 253 252 246 240 235 230 227 225 224 223 222 220 219 217 218 220 220 222 225 230 234 238 240 242 243 246 251 255 256 255 254 251 251 255 259 262 264 266 266 266 270 276 280 280 278 279 281 282 283 284 284 285 286 285 285 284 284 284 284 284 283 282 282 283 283 282 280 279 279 278 277 275 274 272 272 271 270 270
255 260 267 269 266 265 264 265 264 259 249 238 232 229 226 225 223 221 219 216 214 215 216 217 219 223 228 233 237 240 242 244 247 251 254 255 253 251 250 252 256 258 260 262 263 264 268 274 278 278 278 278 280 280 280 280 282 284 286 286 286 286 285 285 287 287 287 287 285 284 284 282 280 278 277 277 277 276 275 274 272 272 271 269 267
277 280 281 281 278 275 275 274 274 272 261 246 237 233 229 226 222 218 214 212 211 211 212 214 217 221 227 233 237 240 241 244 248 251 253 252 249 248 249 253 256 257 259 261 263 267 271 274 276 278 279 280 281 281 282 284 286 288 288 288 287 287 288 289 291 291 291 289 288 287 286 284 282 280 279 278 276 275 273 272 272 270 268 265 262
287 285 285 284 281 278 279 281 280 277 268 257 247 239 231 225 219 213 209 208 208 208 208 210 213 220 228 234 237 239 241 243 246 248 248 247 246 248 252 255 256 256 258 262 266 270 272 274 277 279 280 281 282 283 287 291 292 292 291 289 287 288 290 291 289 287 288 288 288 288 287 286 285 284 284 282 280 277 272 269 271 270 266 261 256
292 293 298 295 291 297 300 300 298 292 283 274 263 248 232 221 213 207 205 205 205 205 205 207 213 223 231 235 237 239 239 240 242 243 243 245 247 251 255 255 255 257 261 265 269 271 272 275 279 282 283 284 285 287 292 294 288 285 285 285 283 284 287 287 284 281 283 286 287 287 287 287 286 285 283 281 278 275 269 265 266 266 263 259 252
306 308 315 316 315 318 317 312 307 302 295 284 271 254 232 218 209 204 204 204 203 202 203 209 218 227 233 236 237 237 237 238 239 241 244 248 252 255 256 257 258 261 264 267 271 273 275 278 282 284 285 286 287 291 296 293 284 281 282 281 280 281 282 282 282 282 284 286 286 285 284 282 281 281 280 278 276 273 270 268 266 264 262 259 253
324 326 329 328 326 320 313 308 304 303 301 291 276 256 229 215 207 202 200 199 198 200 205 215 225 231 234 236 237 237 238 238 241 246 250 253 255 256 257 258 260 263 267 271 274 277 278 281 284 285 285 287 290 295 298 292 285 285 284 282 281 283 283 283 284 284 285 284 284 283 281 280 280 280 279 278 277 276 276 275 275 273 270 267 263
334 333 330 324 317 312 310 311 313 314 313 305 288 265 237 218 205 198 193 190 192 201 213 223 231 236 237 237 238 239 240 242 247 252 254 255 255 255 256 259 263 267 271 274 276 278 279 282 284 284 286 290 292 297 301 295 288 288 287 285 286 288 287 287 287 285 283 282 281 281 281 281 282 281 279 278 279 279 279 278 278 277 276 276 276
331 328 323 318 319 323 327 330 331 328 324 316 299 273 246 218 199 190 185 185 195 208 221 233 238 239 239 240 242 244 245 248 252 253 254 253 254 256 259 264 267 269 271 274 277 279 280 283 285 286 289 291 293 299 302 295 290 290 289 290 295 297 296 293 290 286 283 282 281 280 278 279 280 280 279 280 280 280 280 279 278 278 277 277 279
332 329 331 337 341 343 342 339 335 329 323 313 293 265 233 202 187 182 183 196 215 225 238 247 244 240 244 247 249 250 251 253 254 253 253 254 256 260 264 267 268 268 271 275 277 280 281 284 287 289 289 290 294 299 300 293 290 291 292 296 301 302 301 298 292 288 287 286 285 283 280 279 279 279 280 281 281 280 279 277 276 276 277 277 277
343 346 350 352 351 345 339 333 328 324 318 307 286 252 211 181 179 198 223 238 251 257 255 250 245 249 256 255 255 255 255 256 256 255 254 255 259 263 267 268 268 269 272 275 277 279 282 285 288 289 289 290 293 298 298 293 291 293 296 299 301 301 299 296 292 291 292 292 291 288 283 280 280 281 282 283 282 280 279 278 277 276 276 276 274
356 358 356 351 346 341 337 334 331 327 323 317 312 309 316 316 296 289 286 281 278 271 260 257 263 266 264 261 261 261 260 259 259 257 257 259 263 266 267 268 269 271 274 277 278 280 283 285 287 287 288 289 292 297 298 294 292 294 296 298 300 299 296 293 292 295 296 293 291 288 283 282 282 283 284 283 282 283 283 282 282 283 283 282 279
2 358 350 346 343 341 340 339 336 333 331 330 331 331 329 320 308 301 298 290 281 277 275 280 279 272 269 269 270 269 266 264 262 260 261 264 266 268 270 271 272 274 276 278 280 282 284 285 285 286 288 289 290 295 298 293 291 292 293 295 297 296 292 290 291 294 292 288 287 286 283 282 282 283 284 284 286 288 290 289 289 290 288 286 285
356 350 345 343 341 339 339 340 338 333 328 324 322 320 316 309 303 301 296 288 285 286 287 285 280 276 278 279 277 274 271 267 266 265 267 269 270 271 273 274 274 275 277 279 281 282 284 285 286 287 288 286 287 291 295 293 291 291 291 293 295 291 287 285 286 287 288 288 288 286 283 282 284 287 289 290 292 293 293 292 291 290 288 287 290
346 344 342 340 340 341 343 344 342 336 328 322 317 312 308 305 307 308 303 298 297 295 290 286 283 283 285 284 282 278 274 271 271 272 273 274 274 274 274 274 275 276 277 280 282 282 282 284 286 287 287 287 287 290 294 294 291 289 291 294 294 290 285 284 286 288 287 285 284 284 286 290 292 292 292 292 292 291 292 294 297 298 295 294 295
340 341 343 345 348 350 349 347 345 339 332 324 316 313 315 322 325 317 310 309 307 302 296 290 288 290 291 289 285 279 277 276 277 278 278 276 275 275 274 274 275 277 279 282 283 283 281 282 285 287 288 289 290 291 294 296 291 288 291 295 295 292 289 288 288 285 281 281 290 295 298 301 299 294 291 289 289 290 295 304 310 307 299 298 302
339 346 354 356 353 350 348 346 343 340 335 330 328 332 338 337 329 321 319 319 314 308 302 297 295 296 294 289 284 281 281 281 281 279 276 274 274 274 275 275 276 278 281 282 282 282 281 282 285 288 289 291 293 294 295 297 294 289 290 293 293 292 291 290 289 287 286 295 303 303 304 305 301 291 287 287 290 297 310 321 318 310 309 315 321
346 358 2 357 351 349 349 347 346 349 351 353 355 356 351 343 335 329 325 320 315 311 308 303 301 298 293 289 285 283 282 281 280 279 276 276 277 276 275 276 277 279 281 281 281 282 282 282 284 288 290 293 295 297 297 298 295 289 288 290 292 292 293 294 297 301 304 305 304 302 304 304 297 289 289 294 301 314 324 324 319 317 322 327 326
1 4 358 355 351 350 350 350 354 0 2 2 2 358 351 345 339 332 327 322 317 314 310 306 302 298 295 291 287 284 283 282 282 282 280 278 277 277 277 278 279 279 279 278 280 282 282 281 283 286 290 293 295 297 297 297 295 290 287 288 291 294 297 300 303 304 304 302 299 297 299 299 295 295 300 307 314 320 322 319 317 320 323 322 320
7 358 353 353 352 350 351 353 358 2 359 359 359 354 347 343 339 335 331 325 319 315 310 307 304 301 297 294 290 288 287 287 287 286 281 278 278 278 278 279 280 279 277 276 279 281 280 279 280 282 285 289 293 295 295 296 296 291 286 285 289 293 296 298 298 297 297 295 293 294 298 300 301 303 307 310 313 315 315 314 314 316 316 316 316
358 352 353 354 352 351 351 353 356 358 357 356 353 348 344 342 339 337 334 327 320 316 312 308 305 301 299 296 292 291 291 291 290 288 283 280 280 278 278 279 279 277 276 275 277 278 278 278 278 279 282 286 290 292 292 294 295 292 288 286 287 289 291 292 290 289 288 288 289 293 297 298 299 299 300 304 307 307 306 306 308 312 314 315 314
352 353 355 355 353 353 353 354 355 355 354 352 349 346 343 340 337 336 332 325 319 314 309 306 304 301 299 297 294 293 293 292 291 289 286 283 281 279 276 275 275 274 274 275 276 276 276 275 276 278 281 284 287 287 288 290 293 292 290 289 288 288 289 287 285 283 282 284 286 289 289 287 286 287 293 300 304 303 302 305 309 314 317 315 312
354 356 356 357 358 358 357 355 352 350 348 347 347 346 344 340 337 335 331 324 318 313 308 305 303 300 299 297 294 293 293 292 291 289 286 284 282 280 276 274 275 275 273 274 275 275 275 275 274 277 280 282 283 282 284 288 292 292 289 287 284 282 281 278 276 276 278 282 283 281 278 277 283 291 299 304 304 303 305 309 313 316 318 316 313
354 355 357 360 1 360 357 352 347 345 345 345 345 344 342 340 337 334 330 323 317 312 308 304 302 300 299 297 296 294 293 292 290 289 287 285 284 282 279 279 281 281 278 278 277 276 277 277 275 274 276 275 277 283 288 291 291 286 281 278 276 275 275 276 277 280 284 285 282 277 275 283 295 302 305 306 306 308 311 313 314 317 317 317 316
353 354 357 358 356 354 351 347 345 346 346 345 345 344 343 342 339 336 331 323 317 312 307 304 303 301 300 299 298 296 295 293 291 289 289 289 289 287 280 278 282 286 287 282 276 274 277 279 277 278 280 278 279 287 292 291 287 284 281 280 280 281 284 288 290 289 288 285 282 282 288 297 302 303 303 304 308 312 314 314 316 316 315 316 315
352 356 355 352 349 348 347 346 345 346 347 346 344 344 344 344 341 338 332 324 319 313 307 304 304 303 303 302 299 297 296 294 291 290 289 289 291 291 287 281 280 283 286 285 280 279 283 286 287 292 294 290 288 292 294 291 293 297 297 295 294 293 292 292 294 293 289 285 288 294 298 300 300 299 300 304 308 311 312 314 316 316 315 315 314